Other Public Products
Issued by NWS Grand Forks, ND

Home | Current Version | Previous Version | Graphics & Text | Print | Product List | Glossary On
Versions: 1 2 3 4 5 6 7 8 9 10 11 12 13 14 15 16 17 18 19 20 21 22 23 24 25 26 27 28 29 30 31 32 33 34 35 36 37 38 39 40 41 42 43 44 45 46 47 48 49 50
000
FPUS83 KFGF 301810
OPUFGF
PRAIRIE TO PINES WEATHER ROUNDUP
NATIONAL WEATHER SERVICE EASTERN NORTH DAKOTA/GRAND FORKS ND
100 PM CDT TUE JUN 30 2015

 **SATELLITE DATA USED TO AUGMENT SKY COVER AT AUTOMATED STATIONS**
 *****  WEATHER ACROSS EASTERN NORTH DAKOTA  *****

CITY           SKY/WX    TMP DP  RH WIND       PRES   REMARKS
GRAND FORKS    CLOUDY    73  57  57 SE3       29.94F
6HR MIN TEMP:  57; 6HR MAX TEMP:  74;

GRAND FORKS AF PTSUNNY   72  60  65 SE5       29.95S
GRAND CITY NWS   N/A     73 N/A N/A S1          N/A
BUXTON         NOT AVBL
DEVILS LAKE    CLOUDY    68  57  68 SE8       29.93F
6HR MIN TEMP:  61; 6HR MAX TEMP:  68;

FARGO          PTSUNNY   74  57  55 E5        29.94S
6HR MIN TEMP:  58; 6HR MAX TEMP:  74;

WAHPETON ARPT  CLOUDY    70  57  64 SE5       29.95S
$$

 *****  WEATHER ACROSS CENTRAL AND WESTERN NORTH DAKOTA  *****

CITY           SKY/WX    TMP DP  RH WIND       PRES   REMARKS
JAMESTOWN      CLOUDY    70  60  70 SE7       29.94F
6HR MIN TEMP:  62; 6HR MAX TEMP:  70;

BISMARCK       CLOUDY    70  65  84 S7        29.93F
6HR MIN TEMP:  66; 6HR MAX TEMP:  70; 6HR PCP: TRACE;

MINOT          CLOUDY    69  63  81 CALM      29.91F
6HR MIN TEMP:  63; 6HR MAX TEMP:  69;

MINOT AFB      CLOUDY    71  71  99 S3        29.91S
6HR MIN TEMP:  63; 6HR MAX TEMP:  71; 6HR PCP:  0.06;

GARRISON         N/A     70  66  87 SE3       29.91F
6HR MIN TEMP:  67; 6HR MAX TEMP:  70; 6HR PCP:  0.05;

WILLISTON      CLOUDY    79  53  40 E14       29.91S
6HR MIN TEMP:  65; 6HR MAX TEMP:  83; 6HR PCP:  0.01;

DICKINSON      CLOUDY    71  65  81 E9        29.92F
6HR MIN TEMP:  67; 6HR MAX TEMP:  71; 6HR PCP: TRACE;

HETTINGER      CLOUDY    71  62  73 SE12      29.94S
6HR MIN TEMP:  65; 6HR MAX TEMP:  71;

$$

 *****  OTHER OBSERVATIONS NORTHEAST NORTH DAKOTA  *****

CITY           SKY/WX    TMP DP  RH WIND       PRES   REMARKS
WALHALLA       FAIR      68  68 100 MISG      29.95F
LANGDON        FAIR      70  63  78 SE5       29.97S
CAVALIER       FAIR      72  63  73 E3        29.94F
GRAFTON        FAIR      72  63  73 S3        29.96S
CANDO          FAIR      66  63  88 SE6       29.95F
FORT TOTTEN      N/A     69  60  74 S6        29.95S
ROLLA          FAIR      64  63  94 SE9       29.95F
RUGBY          NOT AVBL
 ***** THE ABOVE OBSERVATIONS ARE NON NWS ARE NOT QUALITY
        CONTROLLED AND MAY MIS-REPORT RAIN FOR SNOW...
$$

 *****  OTHER OBSERVATIONS SOUTHEAST NORTH DAKOTA *****

CITY           SKY/WX    TMP DP  RH WIND       PRES   REMARKS
COOPERSTOWN    NOT AVBL
VALLEY CITY    FAIR      70  64  83 SE6       29.96S
OAKES            N/A     70  66  88 SE5       29.95S
GWINNER        NOT AVBL
SHEYENNE NWR     N/A     71  61  70 SE6       29.95S
BUFFALO        NOT AVBL
WYNDMERE       NOT AVBL
 ***** THE ABOVE OBSERVATIONS ARE NON NWS ARE NOT QUALITY
       CONTROLLED AND MAY MIS-REPORT RAIN FOR SNOW...
$$

  *****  WEATHER ACROSS NORTHERN MINNESOTA  *****

CITY           SKY/WX    TMP DP  RH WIND       PRES   REMARKS
FLAG ISLAND    PTSUNNY   66  52  59 CALM      29.98S
WARROAD        PTSUNNY   66  57  72 E8        29.98F
ROSEAU         PTSUNNY   72  59  64 NE3       29.97F
HALLOCK        CLOUDY    72  63  73 S5        29.94F
THF RVR FALLS  CLOUDY    70  57  64 CALM      29.97S
6HR MIN TEMP:  57; 6HR MAX TEMP:  70;

HALSTAD        NOT AVBL
FOSSTON        PTSUNNY   72  61  68 CALM      29.97F
BAUDETTE       PTSUNNY   68  51  54 E6        29.97F
6HR MIN TEMP:  56; 6HR MAX TEMP:  69;

WASKISH        PTSUNNY   72  55  56 N3        29.97F
CROOKSTON      CLOUDY    72  61  68 CALM      29.96S
$$
  *****  WEATHER ACROSS CENTRAL AND WEST MINNESOTA  *****

CITY           SKY/WX    TMP DP  RH WIND       PRES   REMARKS
BEMIDJI        PTSUNNY   70  55  59 NE6       29.97S
PARK RAPIDS    MOSUNNY   73  52  47 VRB5      29.96S
6HR MIN TEMP:  58; 6HR MAX TEMP:  75;

WADENA         MOSUNNY   73  55  53 N5        29.96S
DETROIT LAKES  PTSUNNY   72  54  53 NW5       29.97F
MOORHEAD       PTSUNNY   73  57  56 CALM      29.95S
FERGUS FALLS   CLOUDY    72  55  56 CALM      29.94S
ELBOW LAKE     FAIR      72  57  58 E7        29.95F
6HR MIN TEMP:  62; 6HR MAX TEMP:  72;

MORRIS MN      CLOUDY    72  57  60 E7        29.94F
STAPLES        PTSUNNY   72  54  53 CALM      29.96S
WHEATON        CLOUDY    66  59  77 SE5       29.96S
$$
  *****  WEATHER ELSEWHERE ACROSS MINNESOTA  *****

CITY           SKY/WX    TMP DP  RH WIND       PRES   REMARKS
DULUTH         PTSUNNY   61  47  59 SE10      29.98F
6HR MIN TEMP:  55; 6HR MAX TEMP:  62; 6HR PCP: TRACE;

INTRNTL FALLS  MOSUNNY   66  49  54 NE9       29.99S
6HR MIN TEMP:  55; 6HR MAX TEMP:  67;

ELY            SUNNY     64  45  48 N5        29.98F
CLOQUET        MOSUNNY   63  52  67 E3        29.98S
BRAINERD       MOSUNNY   73  52  47 N7        29.96S
6HR MIN TEMP:  59; 6HR MAX TEMP:  73;

HIBBING        SUNNY     67  50  54 CALM      29.97F
6HR MIN TEMP:  55; 6HR MAX TEMP:  67;

ALEXANDRIA     PTSUNNY   73  56  54 MISG      29.97F
6HR MIN TEMP:  61; 6HR MAX TEMP:  74;

SAINT CLOUD    MOSUNNY   73  57  57 VRB3      29.95S
6HR MIN TEMP:  59; 6HR MAX TEMP:  74;

MINNEAPOLIS    MOSUNNY   72  58  61 N9        29.94S
6HR MIN TEMP:  63; 6HR MAX TEMP:  73;

$$

  *****  WEATHER ACROSS SOUTH DAKOTA  *****

CITY           SKY/WX    TMP DP  RH WIND       PRES   REMARKS
SIOUX FALLS    CLOUDY    75  63  66 SE3       29.93F
6HR MIN TEMP:  65; 6HR MAX TEMP:  76; 6HR PCP: TRACE;

BROOKINGS      PTSUNNY   73  63  68 SE6       29.95F
WATERTOWN      CLOUDY    73  62  68 E6        29.94S
6HR MIN TEMP:  62; 6HR MAX TEMP:  75;

HURON          CLOUDY    71  66  84 S7        29.92R
6HR MIN TEMP:  67; 6HR MAX TEMP:  71; 6HR PCP:  0.01;

SISSETON         N/A     70  61  73 SE8       29.93S
ABERDEEN       CLOUDY    73  65  75 NW3       29.93S
6HR MIN TEMP:  65; 6HR MAX TEMP:  75; 6HR PCP: TRACE;

MITCHELL       RAIN      70  68  93 SW8       29.92F FOG
PIERRE         CLOUDY    75  65  70 E13       29.88F
6HR MIN TEMP:  69; 6HR MAX TEMP:  79;

MOBRIDGE       CLOUDY    74  68  81 E5        29.90S
RAPID CITY     CLOUDY    79  64  60 S5        29.92F
6HR MIN TEMP:  66; 6HR MAX TEMP:  79;

$$

  *****  SOME WEATHER IN NEARBY STATES *****

CITY           SKY/WX    TMP DP  RH WIND       PRES   REMARKS
GLASGOW MT     NOT AVBL
GREAT FALLS MT SUNNY     88  45  22 W18G29    29.98F
6HR MIN TEMP:  66; 6HR MAX TEMP:  89;

CHEYENNE WY    SUNNY     87  44  22 VRB3      30.17F
6HR MIN TEMP:  57; 6HR MAX TEMP:  89;

SCOTTSBLUFF NE MOSUNNY   91  57  31 VRB6      30.00F
6HR MIN TEMP:  60; 6HR MAX TEMP:  91;

OMAHA NE       LGT RAIN  75  67  76 NW3       29.95R HAZE
6HR MIN TEMP:  68; 6HR MAX TEMP:  77; 6HR PCP: TRACE;

DES MOINES IA  CLOUDY    80  65  59 VRB5      29.90R
6HR MIN TEMP:  68; 6HR MAX TEMP:  80;

DAVENPORT IA   SUNNY     78  63  59 N10       29.87R
6HR MIN TEMP:  63; 6HR MAX TEMP:  78;

CHICAGO IL     PTSUNNY   74  61  63 NW10      29.81F
6HR MIN TEMP:  63; 6HR MAX TEMP:  74;

EAU CLAIRE WI  SUNNY     71  55  56 N12       29.92S
6HR MIN TEMP:  60; 6HR MAX TEMP:  72;

LA CROSSE WI   CLOUDY    69  60  73 NW9       29.90F
6HR MIN TEMP:  61; 6HR MAX TEMP:  70;

$$

  *****  SOME NATIONAL WEATHER *****

CITY           SKY/WX    TMP DP  RH WIND       PRES   REMARKS
LA GUARDIA NY  PTSUNNY   81  55  40 S18G26    29.93F



USA.gov is the U.S. government's official web portal to all federal, state and local government web resources and services.